User: anonymous   Login
Location: Unspecified
(0.0000°N, 0.0000°E)
Time: 01:55:09
(UTC+00:00)
Language:

Altair - Orbit

View from above orbital plane
View from above orbital plane
View from above satellite
View from above satellite

Ground track
Ground track

The orbit data is extracted from the following two-line orbital elements,

1    50U 60009B   16118.83878026 -.00000085 +00000-0 +10088-4 0  9994
2    50 047.2293 132.7600 0113128 141.0464 219.8541 12.20095632485668
Epoch (UTC): 27 April 2016 20:07:50
Eccentricity: 0.0113128
inclination: 47.2293°
perigee height: 1502 km
apogee height: 1682 km
right ascension of ascending node: 132.7600°
argument of perigee: 141.0464°
revolutions per day: 12.20095632
mean anomaly at epoch: 219.8541°
orbit number at epoch: 48566

The dashed part of the orbit path shows where the satellite is in the earth's shadow,  

DLR